Regional Weather Roundup
Issued by NWS

Home | Current Version | Previous Version | Text Only | Print | Product List | Glossary Off
Versions: 1 2 3 4 5 6 7 8 9 10 11 12 13 14 15 16 17 18 19 20 21 22 23 24 25 26 27 28 29 30 31 32 33 34 35 36 37 38 39 40 41 42 43 44 45 46 47 48 49 50

000
ASUS43 KLOT 192112
RWRIL

ILLINOIS REGIONAL WEATHER ROUNDUP
NATIONAL WEATHER SERVICE CHICAGO/ROMEOVILLE IL
300 PM CST SUN FEB 19 2017

NOTE: "FAIR" INDICATES FEW OR NO CLOUDS BELOW 12,000 FEET WITH NO
SIGNIFICANT WEATHER AND/OR OBSTRUCTIONS TO VISIBILITY.

* THESE STATIONS ARE NOT UNDER NWS QUALITY CONTROL. THEY ALSO MAY NOT
  REPORT WEATHER SUCH AS PRECIPITATION OR FOG.

ILZ001-002-007-009-015-016-024-192200-
NORTHWEST ILLINOIS

CITY           SKY/WX    TMP DP  RH WIND       PRES   REMARKS
MOLINE         MOSUNNY   74  37  26 S9        29.97S
STERLING*      SUNNY     67  37  33 VRB3      30.02S
SAVANNA*       MOSUNNY   67  37  33 SE8       30.00S
$$

ILZ003-004-008-010-011-017-018-192200-
NORTH CENTRAL ILLINOIS

CITY           SKY/WX    TMP DP  RH WIND       PRES   REMARKS
ROCKFORD       PTSUNNY   67  40  37 SE8       30.05R
FREEPORT*      SUNNY     65  34  31 S10       30.03S
ROCHELLE*      SUNNY     65  42  42 S9        30.04R
DE KALB*       SUNNY     65  40  40 S8        30.05R
PERU*          SUNNY     67  32  27 S3        30.03S
$$

ILZ005-006-012>014-019>023-192200-
NORTHEAST ILLINOIS

CITY           SKY/WX    TMP DP  RH WIND       PRES   REMARKS
CHICAGO-OHARE  MOSUNNY   68  31  25 VRB3      30.04R
CHICAGO-MIDWAY PTSUNNY   65  31  28 E9        30.05R
AURORA         SUNNY     68  40  35 SE8       30.04S
LANSING*       SUNNY     65  40  39 CALM      30.06R
JOLIET*        SUNNY     68  42  38 S5        30.05R
WAUKEGAN       MOSUNNY   53  33  46 E8        30.05S
DUPAGE AIRPORT SUNNY     67  36  31 S7        30.03S
KANKAKEE*      SUNNY     64  45  51 CALM      30.07S
WHEELING       SUNNY     60  31  33 E6        30.06R
MORRIS*        SUNNY     67  40  37 CALM      30.03S
ROMEOVILLE*    SUNNY     66  43  43 CALM      30.05R
NORTHERLY ISL    N/A     50  30  46 NE2         N/A
$$

LMZ740>746-192200-
SOUTHERN LAKE MICHIGAN

STATION/POSITION SKY/WX   TEMP    WIND        PRES    VSBY  WAVE
                          AIR SEA DIR/SP/G                  HT/PER
                          (F)     (DEG/KT/KT) (MB)    (MI)  (FT/S)
HARRISON CRIB              48      80/  7/  7   N/A
BURNHAM HARBOR             49      70/  3/  5   N/A
CALUMET HARBOR             46      60/  5/  6 1017.6R
BURNS HARBOR               44      70/  9/  9 1018.6S
MICHIGAN CITY              42      20/  7/  7   N/A
$$

ILZ025>027-034>036-040-047-049-050-058-095>099-192200-
WEST-CENTRAL ILLINOIS

CITY           SKY/WX    TMP DP  RH WIND       PRES   REMARKS
QUINCY         CLOUDY    72  47  40 S9        29.99S
GALESBURG*     SUNNY     70  44  39 S8        29.99F
MACOMB*        SUNNY     72  45  38 S7        30.02R
JACKSONVILLE*  SUNNY     72  48  42 SE10      30.02S
PITTSFIELD*    SUNNY     72  47  40 SE7       30.01F
$$

ILZ028>032-037-038-041>044-048-051>054-059>061-192200-
CENTRAL ILLINOIS

CITY           SKY/WX    TMP DP  RH WIND       PRES   REMARKS
PONTIAC        SUNNY     69  38  32 S5        30.05S
BLOOMINGTON    SUNNY     66  44  45 S8        30.06S
DECATUR        SUNNY     67  46  47 S5        30.06R
PEORIA         SUNNY     68  44  42 S9        30.03S
LACON*         SUNNY     68  40  35 SW6       30.02R
LINCOLN*       SUNNY     68  49  50 SE7       30.04S
SPRINGFIELD    SUNNY     70  48  45 S9        30.04S
TAYLORVILLE    SUNNY     66  50  57 CALM      30.06R
$$

ILZ033-039-045-046-055>057-062-063-192200-
EAST-CENTRAL ILLINOIS

CITY           SKY/WX    TMP DP  RH WIND       PRES   REMARKS
CHAMPAIGN      SUNNY     67  44  43 CALM      30.07R
RANTOUL*       SUNNY     68  45  42 W5        30.07R
MATTOON        SUNNY     61  52  72 S7        30.07S HAZE
PARIS*         SUNNY     65  51  58 S6        30.08S
$$

ILZ079-100>102-192200-
SOUTHWEST ILLINOIS

CITY           SKY/WX    TMP DP  RH WIND       PRES   REMARKS
BELLEVILLE     SUNNY     67  56  68 E7        30.04F
CAHOKIA*       SUNNY     70  50  49 SE13      30.03F
SPARTA*        SUNNY     69  53  57 S6        30.06S
$$

ILZ064>066-069>071-074>076-080>082-084>086-088>090-092>094-192200-
SOUTH-CENTRAL ILLINOIS

CITY           SKY/WX    TMP DP  RH WIND       PRES   REMARKS
CARBONDALE     SUNNY     65  55  70 SE8       30.07S
CAIRO*         MOSUNNY   57  55  94 CALM      30.09S
EFFINGHAM*     SUNNY     62  53  72 E9        30.09S
MARION         SUNNY     70  64  83 S6        30.09S
MT. VERNON     SUNNY     61  53  75 S8        30.09S
CENTRALIA*     SUNNY     67  55  66 SE8       30.07R
SALEM*         SUNNY     68  52  56 SE6       30.07S
METROPOLIS*    SUNNY     59  54  83 CALM      30.10S
$$

ILZ067-068-072-073-078-083-087-091-192200-
SOUTHEAST ILLINOIS

CITY           SKY/WX    TMP DP  RH WIND       PRES   REMARKS
LAWRENCEVILLE  SUNNY     58  49  72 S7        30.11R
FLORA*         PTSUNNY   59  52  78 S8        30.10S
FAIRFIELD*     CLOUDY    55  52  88 S3        30.09F FOG
HARRISBURG*    PTSUNNY   59  54  84 E6        30.10S
ROBINSON*      SUNNY     60  50  69 S8        30.11R
CARMI*         CLOUDY    54  52  92 SE5       30.11S FOG
$$

ABBREVIATIONS USED IN REMARKS
   TC - TEMPERATURE IN CELSIUS
  WCI - WIND CHILL INDEX
   HX - HEAT INDEX
  VSB - VISIBILITY
$$




USA.gov is the U.S. government's official web portal to all federal, state and local government web resources and services.